Find Starlink 2756

NORAD ID: 48683 Int'l Des: 2021-044 Owner: SPXS Country: US Constellation: starlink operational
LEOCIRCULAR

現在のビュー

3D地球を読み込み中...

About Starlink 2756

Starlink 2756 (NORAD 48683) is a starlink constellation satellite (v1.0) launched May 26, 2021 by SPXS of US. It operates in LEO, CIRCULAR orbit with a mass of 260.00 kg.

Starlink 2756について

説明を読み込み中...

次回通過

Passes for default location (London). Set your location on the main map for personalized predictions.

高度履歴

Loading altitude history...

軌道要素

1 48683U 21044AX 26194.39106338 .00002267 00000-0 84771-4 0 9993
2 48683 53.1566 200.3295 0001162 80.9933 279.1200 15.31714698283762
Epoch: Jul 13, 2026 • Age: 19 hours

現在のステータス

高度 484.2 km
遠地点 / 近地点 N/A
速度 7.62 km/s
衛星直下点 -39.51°S, 167.54°E
打ち上げ日 May 26, 2021
運用期間 5.1 years
タイプ internet

技術仕様

分類 Payload
質量 260.00 kg
乾燥質量 248.00 kg
総質量 260.00 kg
長さ 0.20 m
直径 2.80 m
スパン 9.00 m
形状 Box + pan
製造者 SPXS
バスタイプ Starlink
フェーズステータス In Orbit
所有者/国 SPXS/US

Most Searched